METEOSAT-10 (MSG-3)

Last updated on Sun Jan 18 2026 00:02:21 GMT+0000 (Coordinated Universal Time)

1 38552U 12035B 26017.29861449 .00000006 00000+0 00000+0 0 9997 2 38552 4.3111 61.6248 0001846 283.9010 238.7326 1.00271281 49347
UTC large
Height (km)
Speed (km/s)
/
Latitude / Longitude
Inclination (degrees)
Orbital Period (minutes)
Azimuth
Elevation
Range (km)
Doppler Factor

Next 0 passes for location: London (51.5072 / 0.1276)

Sorry there are no passes over London.